Location: Brompton
(51.4000°N, 0.5333°E)
Time: 03:46:30
(UTC+00:00)

USA 215 - Pass Details

Date: 02 October 2021
Orbit: 1093 x 1114 km, 123.0° (Epoch: 14 October)

Event Time Altitude Azimuth Distance (km) Brightness Sun altitude
Exits shadow 21:07:32 47° 225° (SW) 1,416 3.7 -32.1°
Drops below altitude 10° 21:13:43 10° 296° (WNW) 2,965 6.3 -32.8°
Sets 21:16:20 0° 302° (WNW) 3,929 7.2 -33.1°
